User: anonymous   Login
Location: Unspecified
(0.0000°N, 0.0000°E)
Time: 15:23:57
(UTC+00:00)
Language:

DELFI-N3XT - Orbit

View from above orbital plane
View from above orbital plane
View from above satellite
View from above satellite

Ground track
Ground track

The orbit data is extracted from the following two-line orbital elements,

1 39420U 13066E   17228.93069964  .00000149  00000-0  34702-4 0  9994
2 39420  97.6557 229.3323 0137790 190.0399 169.8047 14.61877143199243
Epoch (UTC): 16 August 2017 22:20:12
Eccentricity: 0.0137790
inclination: 97.6557°
perigee height: 590 km
apogee height: 784 km
right ascension of ascending node: 229.3323°
argument of perigee: 190.0399°
revolutions per day: 14.61877143
mean anomaly at epoch: 169.8047°
orbit number at epoch: 19924

The dashed part of the orbit path shows where the satellite is in the earth's shadow,  

DLR